sat.trackr.live / text

‹ back to catalog

STARLINK-32008

NORAD 60028 · 2024-111N

PAYLOAD ACTIVE UNKNOWN

§ Identity

Operator
Country
US
Launch date
2024-06-08
Launch site
AFETR
Launch vehicle
Mass (kg)
RCS (m²)

Purposes: comms

External: N2YO · Heavens-Above · Gunter

§ Orbital elements

Epoch: 2026-09-21T03:44:08.763936Z

Period
93.85 min
Inclination
53.1593°
Eccentricity
0.0001203
Mean motion
15.34403436 rev/d
Perigee alt
461.9 km
Apogee alt
463.5 km
Semi-major
6,840.8 km
B*
1.4801e-5
RAAN
246.7500°
Arg perigee
88.2397°
Mean anomaly
271.8743°
Rev number
12,897

§ Raw data

STARLINK-320081 60028U 24111N   26264.15565699  .00000124  00000+0  14801-4 0  99952 60028  53.1593 246.7500 0001203  88.2397 271.8743 15.34403436128973

JSON: /api/v1/satellites/60028 · /tle

For live sub-satellite position, see the globe view (requires WebGL).

§ Visibility from observer

Set your observer location to see the next 7 days of passes ≥ 10°. The values pass through the URL so the page stays shareable.

No JS? Fill the form by hand. The geolocation button needs JavaScript.